Content
SEND FEEDBACK

Daily
Averages
Monthly
Summary
Canada

VANCOUVER - UNIVERSITY, BRITISH COLUMBIA


Home > North America > Canada > British Columbia
Elevation: 249 feet     Latitude: 49 15N     Longitude: 123 15W

WEATHER
 
SELECT A DAY
Number of Records: 194,403;   Date Range: 1/1/95 - 7/28/14
 
SHARE

PRINT THIS DATA

[ ← Previous Day ]
WEATHER ALMANAC - FEBRUARY 17, 2013
[ Next Day → ]
[ °C ]   °F
Weather ElementAverageHighLow
Temperature42.2 °F44.6 °F (12:00 pm)39.2 °F (4:00 am)
Dewpoint33 °F34 °F (10:00 am)32 °F (3:00 am)
Humidity68.4 %76 % (2:00 am)57 % (4:00 pm)
Barometer30.20 in30.24 in (12:00 pm)30.14 in (11:00 pm)
Wind Speed8.6 mph24.2 mph (1:00 am)
Wind Gust29.9 mph (1:00 am)
Weather ElementAverage
Visibility18.6 mi
Wind DirectionSSW (206.7 °)

Weather ElementTotal
Precipitation---
Heating Degree Days23.1 (Base 65)
Averaged from 27 records on February 17, 2013
WEATHER CONDITIONS BREAKOUT
WIND DIRECTION BREAKOUT
WEATHER BY HOUR - FEBRUARY 17, 2013
[ °C ]   °F
Local TimeTemperatureDewpointHumidityBarometerVisibilityWind DirectionWind SpeedGust SpeedPrecipitationEventsConditions
1:00 AM42.8 °F33.8 °F70 %30.17 in20.0 miWNW (290°)24.2 mph29.9 mphPartly Cloudy
2:00 AM41.0 °F33.8 °F76 %30.18 in20.0 miWNW (300°)17.3 mph23.0 mphPartly Cloudy
3:00 AM41.0 °F32.0 °F70 %30.19 in20.0 miWNW (300°)19.6 mphScattered Clouds
4:00 AM40.0 °F32.0 °F63 %30.18 in19.0 miWNW (290°)11.5 mphPartly Cloudy
4:00 AM39.2 °F32.0 °F75 %30.18 in20.0 miWNW (290°)11.5 mphScattered Clouds
5:00 AM41.0 °F33.8 °F76 %30.19 in15.0 miWest (270°)15.0 mphScattered Clouds
6:00 AM41.0 °F32.0 °F70 %30.19 in15.0 miWest (270°)11.5 mphScattered Clouds
7:00 AM39.2 °F32.0 °F75 %30.19 in15.0 miWest (280°)12.7 mphScattered Clouds
8:00 AM41.0 °F32.0 °F70 %30.21 in20.0 miWest (280°)15.0 mphScattered Clouds
9:00 AM42.8 °F33.8 °F70 %30.22 in20.0 miWNW (290°)15.0 mphScattered Clouds
10:00 AM43.0 °F34.0 °F60 %30.23 in19.0 miWNW (290°)10.4 mphPartly Cloudy
10:00 AM42.8 °F33.8 °F70 %30.23 in20.0 miWNW (290°)11.5 mphMostly Cloudy
11:00 AM42.8 °F33.8 °F70 %30.23 in20.0 miWNW (290°)5.8 mphMostly Cloudy
12:00 PM44.6 °F33.8 °F66 %30.24 in20.0 miWest (260°)5.8 mphMostly Cloudy
1:00 PM44.6 °F33.8 °F66 %30.24 in20.0 miWest (280°)5.8 mphMostly Cloudy
2:00 PM44.6 °F33.8 °F66 %30.23 in20.0 miWest (260°)5.8 mphMostly Cloudy
3:00 PM44.6 °F32.0 °F61 %30.21 in20.0 miSW (220°)3.5 mphMostly Cloudy
4:00 PM44.0 °F34.0 °F57 %30.21 in19.0 miWest (260°)3.5 mphMostly Cloudy
4:00 PM44.6 °F33.8 °F66 %30.21 in20.0 miWest (260°)3.5 mphMostly Cloudy
5:00 PM42.8 °F33.8 °F70 %30.19 in20.0 miCalmMostly Cloudy
6:00 PM42.8 °F32.0 °F66 %30.18 in20.0 miCalmMostly Cloudy
7:00 PM42.8 °F32.0 °F66 %30.18 in20.0 miCalmMostly Cloudy
8:00 PM42.8 °F32.0 °F66 %30.17 in20.0 miCalmMostly Cloudy
9:00 PM41.0 °F32.0 °F70 %30.17 in15.0 miEast (90°)3.5 mphMostly Cloudy
10:00 PM40.0 °F33.0 °F66 %30.16 in15.0 miNNE (30°)5.8 mphPartly Cloudy
10:00 PM41.0 °F32.0 °F70 %30.16 in15.0 miEast (90°)5.8 mphMostly Cloudy
11:00 PM41.0 °F33.8 °F76 %30.14 in15.0 miEast (100°)8.1 mphMostly Cloudy
Hourly data recorded from CYVR, located miles away from Vancouver - University, British Columbia







STORIES FROM OUR PARTNERS